This is the latest recevied weather packets stored in our database for station/object EB2EMZ-14. If no packets are shown the sender has not sent any weather packets the latest 10 day(s).
| Time | Temp. | Humidity | Pressure | Rain* | Wind** | Luminosity | Snow |
|---|---|---|---|---|---|---|---|
| 1778169913 | 20.56° C | 46% | 1008.7 hPa | 0 mm | - | 0 W/m² | - |
| 1778169612 | 20.56° C | 47% | 1008.6 hPa | 0 mm | - | 0 W/m² | - |
| 1778169312 | 20.56° C | 46% | 1008.7 hPa | 0 mm | - | 0 W/m² | - |
| 1778169012 | 21.11° C | 47% | 1008.7 hPa | 0 mm | - | 0 W/m² | - |
| 1778168713 | 21.11° C | 47% | 1008.6 hPa | 0 mm | - | 0 W/m² | - |
| 1778168413 | 21.67° C | 46% | 1008.4 hPa | 0 mm | - | 0 W/m² | - |
| 1778168113 | 21.67° C | 46% | 1008.3 hPa | 0 mm | - | 0 W/m² | - |
| 1778167812 | 22.22° C | 46% | 1008.3 hPa | 0 mm | - | 0 W/m² | - |
| 1778167512 | 22.22° C | 46% | 1008.3 hPa | 0 mm | - | 0 W/m² | - |
| 1778167212 | 22.78° C | 46% | 1008.2 hPa | 0 mm | - | 0 W/m² | - |
| 1778166912 | 22.78° C | 46% | 1008.4 hPa | 0 mm | - | 0 W/m² | - |
| 1778166613 | 22.78° C | 48% | 1008.4 hPa | 0 mm | - | 0 W/m² | - |
| 1778166313 | 22.22° C | 48% | 1008.3 hPa | 0 mm | - | 0 W/m² | - |
| 1778166012 | 22.22° C | 48% | 1008.5 hPa | 0 mm | - | 0 W/m² | - |
| 1778165713 | 21.67° C | 49% | 1008.5 hPa | 0 mm | - | 0 W/m² | - |
| 1778165412 | 21.67° C | 50% | 1008.6 hPa | 0 mm | - | 0 W/m² | - |
| 1778165112 | 21.11° C | 49% | 1008.6 hPa | 0 mm | - | 0 W/m² | - |
| 1778164812 | 21.11° C | 49% | 1008.6 hPa | 0 mm | - | 0 W/m² | - |
| 1778164513 | 21.67° C | 48% | 1008.8 hPa | 0 mm | - | 0 W/m² | - |
| 1778164212 | 21.67° C | 48% | 1008.8 hPa | 0 mm | - | 0 W/m² | - |
| 1778163912 | 22.22° C | 48% | 1008.7 hPa | 0 mm | - | 0 W/m² | - |
| 1778163612 | 22.22° C | 47% | 1008.8 hPa | 0 mm | - | 0 W/m² | - |
| 1778163311 | 22.22° C | 47% | 1008.7 hPa | 0 mm | - | 0 W/m² | - |
| 1778163012 | 21.67° C | 48% | 1008.7 hPa | 0 mm | - | 0 W/m² | - |
| 1778162712 | 21.67° C | 49% | 1009 hPa | 0 mm | - | 0 W/m² | - |
* Rain latest hour (hover to see other rain measurements)
** Current wind speed in m/s (hover to see current wind gust speed)